This demonstration page uses our WeatherBlox Daily Observations layout. Learn more.

Left ArrowRight Arrow

Hourly Observations for August 31, 2018

Temp ( °F °C ) Dew Point ( °F °C ) Humidity (%) Winds ( mph kmh ) Pressure ( in mb ) Visibility ( mi km ) Precip ( " mm )
12:53 am 00:53 Clear 66 18.9 55 12.8 68 68 Calm 29.99 1016 10 16 0.00 0.00
1:53 am 01:53 Clear 64 17.8 54 12.2 70 70 Calm 29.99 1016 10 16 0.00 0.00
2:53 am 02:53 Clear 63 17.2 54 12.2 73 73 Calm 29.99 1016 10 16 0.00 0.00
3:53 am 03:53 Clear 62 16.7 53 11.7 73 73 Calm 29.98 1015 10 16 0.00 0.00
4:53 am 04:53 Clear 60 15.6 52 11.1 75 75 Calm 29.98 1015 10 16 0.00 0.00
5:53 am 05:53 Clear 60 15.6 52 11.1 75 75 Calm 29.99 1016 10 16 0.00 0.00
6:53 am 06:53 Sunny 59 15 52 11.1 78 78 Calm 30.01 1016 10 16 0.00 0.00
7:53 am 07:53 Sunny 63 17.2 52 11.1 68 68 Calm 30.01 1016 10 16 0.00 0.00
8:53 am 08:53 Sunny 69 20.6 52 11.1 55 55 Calm 30.01 1016 10 16 0.00 0.00
9:53 am 09:53 Sunny 75 23.9 53 11.7 46 46 NE 6 9 30.01 1016 10 16 0.00 0.00
10:53 am 10:53 Sunny 78 25.6 54 12.2 43 43 SSW 5 7 29.99 1016 10 16 0.00 0.00
11:53 am 11:53 Sunny 82 27.8 53 11.7 37 37 Calm 29.96 1015 10 16 0.00 0.00
12:53 pm 12:53 Sunny 85 29.4 49 9.4 29 29 SE 5 7 29.94 1014 10 16 0.00 0.00
1:53 pm 13:53 Sunny 86 30 45 7.2 24 24 SE 5 7 29.91 1013 10 16 0.00 0.00
2:53 pm 14:53 Sunny 90 32.2 44 6.7 20 20 VRB 3 6 29.88 1012 10 16 0.00 0.00
3:53 pm 15:53 Sunny 90 32.2 42 5.6 19 19 VRB 3 6 29.85 1011 7 11 0.00 0.00
4:53 pm 16:53 Sunny 92 33.3 40 4.4 16 16 ESE 3 6 29.83 1010 9 14 0.00 0.00
5:53 pm 17:53 Sunny 91 32.8 38 3.3 15 15 SSE 7 11 29.82 1010 10 16 0.00 0.00
6:53 pm 18:53 Sunny 90 32.2 36 2.2 15 15 SE 5 7 29.81 1009 10 16 0.00 0.00
7:53 pm 19:53 Clear 84 28.9 37 2.8 19 19 Calm 29.80 1009 10 16 0.00 0.00
8:53 pm 20:53 Clear 80 26.7 38 3.3 22 22 Calm 29.83 1010 10 16 0.00 0.00
9:53 pm 21:53 Clear 76 24.4 41 5 29 29 N 3 6 29.84 1011 10 16 0.00 0.00
10:53 pm 22:53 Clear 74 23.3 44 6.7 34 34 Calm 29.85 1011 10 16 0.00 0.00
11:53 pm 23:53 Clear 70 21.1 44 6.7 39 39 undefined N/A 29.85 1011 10 16 0.00 0.00

Powered by AerisWeather